Location: Alberta Star Party
(51.6612°N, 112.9089°W)
Time: 14:51:10
(UTC-07:00)

Amateur Radio Satellites - All Passes

Search period start: 03 December 2016 14:21
Search period end: 04 December 2016 14:21
Location: Alberta Star Party, 51.6612°N, 112.9089°W

Satellite Date Start Highest point End Downlink Frequencies (MHz)
Time Altitude Azimuth
DX 1 03 Dec 14:24:59 14:28:40 27° 298° (WNW) 14:32:21 434.975-435.025
RS-15 03 Dec 14:27:56 14:39:54 50° 20° (NNE) 14:51:46 29.354- 29.394
UKube-1 03 Dec 14:38:04 14:41:40 26° 298° (WNW) 14:45:15 .
BEESAT 2 03 Dec 14:40:06 14:44:10 79° 48° (NE) 14:48:12 435.950
PCSat 03 Dec 14:41:22 14:46:19 35° 323° (NW) 14:51:19 145.827
Oscar 19 03 Dec 14:42:58 14:45:42 14° 274° (W) 14:48:26 437.125/150
Cosmos 2499 03 Dec 14:48:54 14:54:11 18° 290° (WNW) 14:59:21 435.465 / 435.565
TISAT 1 03 Dec 14:53:22 14:57:29 48° 291° (WNW) 15:01:32 437.305
AUBIESAT-1 03 Dec 14:53:48 14:58:02 33° 101° (E) 15:02:09 437.475
SWISSCUBE 03 Dec 14:57:55 15:02:32 48° 100° (E) 15:07:07 437.505
MOZHAYETS 4 03 Dec 14:58:25 15:00:43 14° 86° (E) 15:03:01
SPROUT 03 Dec 14:58:26 15:00:13 12° 306° (NW) 15:02:02 437.525
ITAMSAT 1 03 Dec 15:01:33 15:06:41 57° 259° (WSW) 15:11:51 435.822/435.867
BEESAT 03 Dec 15:02:17 15:06:54 47° 100° (E) 15:11:30 436.000
M-CUBED/EXP-1 PRIME 03 Dec 15:03:17 15:07:53 48° 105° (ESE) 15:12:21 437.505
AIST 2 03 Dec 15:03:37 15:06:31 18° 19° (NNE) 15:09:25 435.215
GONETS M04 03 Dec 15:07:50 15:12:33 16° 290° (WNW) 15:17:17
Cosmos 2491 03 Dec 15:17:49 15:18:51 10° 30° (NNE) 15:19:53 435.465 / 435.565
ITUPSAT 1 03 Dec 15:27:54 15:32:42 77° 105° (ESE) 15:37:27 437.325
KKS-1 03 Dec 15:49:13 15:52:20 18° 90° (E) 15:55:25 437.445
AO-7 03 Dec 15:50:00 15:57:59 50° 259° (W) 16:06:04 29.400- 29.500
GOMX 1 03 Dec 15:55:02 15:58:10 18° 55° (NE) 16:01:27 467.674
BEESAT 3 03 Dec 15:56:32 15:58:29 13° 248° (WSW) 16:00:24 437.485
NOAA 18 03 Dec 16:02:37 16:05:22 14° 46° (NE) 16:08:07 137.9125
BRITE-PL 03 Dec 16:03:15 16:07:13 36° 65° (ENE) 16:11:28 437.365/2234.400
STARS 03 Dec 16:04:09 16:06:06 13° 87° (E) 16:08:02 437.465
HORYU 2 03 Dec 16:06:34 16:10:41 36° 65° (ENE) 16:14:48 437.375
CUTE-I 03 Dec 16:16:08 16:20:03 21° 55° (NE) 16:23:59 437.470
BEESAT 2 03 Dec 16:18:55 16:21:28 16° 246° (WSW) 16:23:59 435.950
DOVE 4 03 Dec 16:20:28 16:23:23 16° 53° (NE) 16:26:21 437.250
PCSat 03 Dec 16:27:48 16:31:20 17° 348° (NNW) 16:34:53 145.827
AUBIESAT-1 03 Dec 16:28:07 16:32:28 40° 300° (WNW) 16:36:43 437.475
O/OREOS (USA 219) 03 Dec 16:28:41 16:32:26 25° 105° (ESE) 16:36:11 437.305
CUBESAT XI-V 03 Dec 16:29:36 16:32:46 18° 89° (E) 16:35:55 437.345
MOZHAYETS 4 03 Dec 16:33:57 16:38:32 87° 289° (WNW) 16:43:06
SWISSCUBE 03 Dec 16:36:07 16:40:08 28° 299° (WNW) 16:44:08 437.505
M-CUBED/EXP-1 PRIME 03 Dec 16:38:03 16:42:08 30° 304° (NW) 16:46:11 437.505
Cubesat XI-IV 03 Dec 16:40:14 16:44:51 30° 60° (ENE) 16:49:27 437.490
BEESAT 03 Dec 16:40:27 16:44:30 28° 299° (WNW) 16:48:31 436.000
RS-15 03 Dec 16:41:28 16:53:58 90° 227° (SW) 17:06:08 29.354- 29.394
AIST 2 03 Dec 16:41:48 16:45:55 49° 41° (NE) 16:50:03 435.215
NOAA 15 03 Dec 16:47:14 16:51:58 36° 62° (ENE) 16:56:44 137.62
LilacSat-2 03 Dec 16:52:08 16:55:21 26° 65° (ENE) 16:58:36 437.200
ITUPSAT 1 03 Dec 17:06:42 17:10:01 19° 304° (NW) 17:13:19 437.325
Cosmos 2491 03 Dec 17:11:40 17:19:24 33° 60° (ENE) 17:27:05 435.465 / 435.565
ISS 03 Dec 17:19:18 17:19:39 10° 136° (SE) 17:20:01 145.825
HO-68 03 Dec 17:22:19 17:27:55 26° 49° (NE) 17:33:33 435.675
KKS-1 03 Dec 17:24:52 17:29:20 65° 289° (WNW) 17:33:46 437.445
GOMX 1 03 Dec 17:31:00 17:35:35 82° 256° (WSW) 17:40:34 467.674
CANX-2 03 Dec 17:37:09 17:39:05 13° 55° (NE) 17:41:01 2200.000
STARS 03 Dec 17:38:39 17:43:08 89° 113° (ESE) 17:47:33 437.465
NOAA 18 03 Dec 17:39:32 17:44:58 58° 67° (ENE) 17:50:26 137.9125
BRITE-PL 03 Dec 17:42:00 17:45:49 30° 267° (W) 17:49:53 437.365/2234.400
HORYU 2 03 Dec 17:43:15 17:47:16 32° 264° (W) 17:51:19 437.375
YUBILEINY 03 Dec 17:51:13 17:56:14 17° 70° (ENE) 18:01:15 435.215
AO-7 03 Dec 17:51:19 17:53:00 11° 282° (WNW) 17:54:41 29.400- 29.500
CUTE-I 03 Dec 17:54:08 17:59:32 82° 255° (WSW) 18:04:56 437.470
DOVE 4 03 Dec 17:55:25 18:00:13 79° 74° (ENE) 18:05:21 437.250
CINEMA 3 03 Dec 17:57:43 18:02:00 30° 62° (ENE) 18:06:20 145.822/145.860
CUBESAT XI-V 03 Dec 18:05:59 18:10:38 69° 287° (WNW) 18:15:16 437.345
O/OREOS (USA 219) 03 Dec 18:07:09 18:11:36 49° 305° (NW) 18:16:02 437.305
SEEDS 03 Dec 18:07:51 18:10:18 15° 57° (ENE) 18:12:44 437.485
MOZHAYETS 4 03 Dec 18:12:28 18:15:03 15° 305° (NW) 18:17:37
PCSat 03 Dec 18:13:10 18:16:51 18° 15° (NNE) 18:20:33 145.827
Cubesat XI-IV 03 Dec 18:19:25 18:24:41 54° 260° (W) 18:29:59 437.490
AIST 2 03 Dec 18:20:34 18:24:15 29° 241° (WSW) 18:27:54 435.215
COMPASS 1 03 Dec 18:23:41 18:26:04 15° 58° (ENE) 18:28:28 437.405
LilacSat-2 03 Dec 18:26:01 18:29:34 34° 264° (W) 18:33:07 437.200
NOAA 15 03 Dec 18:26:45 18:31:42 42° 262° (W) 18:36:42 137.62
CUBEBUG 2 03 Dec 18:35:17 18:38:48 21° 59° (ENE) 18:42:17 437.445
ZACube-1 03 Dec 18:38:04 18:38:45 10° 51° (NE) 18:39:26 437.345
FUNcube-1 03 Dec 18:46:34 18:48:01 11° 53° (NE) 18:49:27 145.935
Cosmos 2504 03 Dec 18:46:47 18:52:07 19° 71° (ENE) 18:57:35 435.465 / 435.565
ISS 03 Dec 18:52:21 18:55:28 40° 155° (SSE) 18:58:36 145.825
CUTE 1.7 + AOD 2 03 Dec 18:52:47 18:56:52 50° 70° (ENE) 19:00:57 437.475
RS-15 03 Dec 18:54:43 19:05:05 34° 255° (WSW) 19:15:14 29.354- 29.394
STRAND 1 03 Dec 18:59:23 19:03:20 22° 91° (E) 19:07:16 437.568
KKS-1 03 Dec 19:03:28 19:05:03 12° 309° (NW) 19:06:39 437.445
HO-68 03 Dec 19:07:38 19:14:49 87° 69° (ENE) 19:22:04 435.675
Cosmos 2491 03 Dec 19:08:25 19:17:07 74° 265° (W) 19:25:46 435.465 / 435.565
CANX-2 03 Dec 19:10:03 19:14:17 83° 74° (ENE) 19:18:31 2200.000
GOMX 1 03 Dec 19:12:40 19:14:37 12° 278° (W) 19:16:37 467.674
STARS 03 Dec 19:16:17 19:18:52 15° 305° (NW) 19:21:25 437.465
Oscar 11 03 Dec 19:18:54 19:21:56 19° 59° (ENE) 19:24:58 145.826/435.025
NOAA 18 03 Dec 19:21:19 19:26:00 27° 267° (W) 19:30:43 137.9125
UWE-3 03 Dec 19:22:44 19:26:55 34° 66° (ENE) 19:31:04 435.000/436.395/437.385
AAUSAT CUBESAT 2 03 Dec 19:29:44 19:33:39 45° 69° (ENE) 19:37:36 437.432
CINEMA 3 03 Dec 19:34:08 19:38:54 48° 262° (W) 19:43:48 145.822/145.860
DOVE 4 03 Dec 19:35:27 19:38:37 17° 275° (W) 19:41:52 437.250
CUTE-I 03 Dec 19:37:30 19:40:26 15° 274° (W) 19:43:23 437.470
SEEDS 03 Dec 19:41:17 19:45:28 79° 257° (WSW) 19:49:39 437.485
YUBILEINY 03 Dec 19:42:42 19:51:17 67° 94° (E) 19:59:58 435.215
CUBESAT XI-V 03 Dec 19:45:12 19:47:12 13° 308° (NW) 19:49:13 437.345
O/OREOS (USA 219) 03 Dec 19:50:08 19:52:07 13° 327° (NNW) 19:54:07 437.305
AIST 1 03 Dec 19:56:27 20:00:11 29° 90° (E) 20:03:59
PCSat 03 Dec 19:56:37 20:01:45 40° 39° (NE) 20:06:51 145.827
COMPASS 1 03 Dec 19:56:58 20:01:06 78° 258° (WSW) 20:05:15 437.405
ZACube-1 03 Dec 20:09:40 20:14:08 57° 71° (ENE) 20:18:33 437.345
CUBEBUG 2 03 Dec 20:10:14 20:14:58 69° 257° (WSW) 20:19:43 437.445
FUNcube-1 03 Dec 20:18:56 20:23:26 64° 72° (ENE) 20:27:52 145.935
HUMSAT D 03 Dec 20:27:05 20:30:06 19° 60° (ENE) 20:33:06 437.325/437.525
ISS 03 Dec 20:28:31 20:31:50 89° 175° (S) 20:35:10 145.825
CUTE 1.7 + AOD 2 03 Dec 20:29:47 20:32:59 21° 269° (W) 20:36:11 437.475
PRISM 03 Dec 20:35:08 20:37:04 13° 88° (E) 20:38:59 437.425
Cosmos 2504 03 Dec 20:35:31 20:43:50 71° 94° (E) 20:52:39 435.465 / 435.565
STRAND 1 03 Dec 20:37:54 20:42:58 64° 290° (WNW) 20:48:00 437.568
CANX-2 03 Dec 20:48:49 20:50:44 13° 273° (W) 20:52:39 2200.000
DELFI C3 03 Dec 20:51:49 20:55:37 50° 70° (ENE) 20:59:26 145.870
Oscar 11 03 Dec 20:53:22 20:57:39 64° 259° (W) 21:01:58 145.826/435.025
HO-68 03 Dec 20:57:58 21:03:27 23° 272° (W) 21:08:59 435.675
UWE-3 03 Dec 20:59:01 21:03:20 36° 264° (W) 21:07:39 435.000/436.395/437.385
CUSAT 1 03 Dec 21:03:52 21:07:01 72° 259° (W) 21:11:01 437.405
AAUSAT CUBESAT 2 03 Dec 21:06:09 21:09:21 22° 268° (W) 21:12:35 437.432
Cosmos 2491 03 Dec 21:06:53 21:12:24 19° 288° (WNW) 21:17:55 435.465 / 435.565
DANDE 03 Dec 21:24:24 21:26:52 37° 74° (ENE) 21:29:34 436.750
AIST 1 03 Dec 21:33:46 21:37:43 34° 289° (WNW) 21:41:44
SO-50 03 Dec 21:36:08 21:40:48 57° 126° (SE) 21:45:24 436.795
PCSat 03 Dec 21:40:04 21:45:20 51° 241° (WSW) 21:50:34 145.827
YUBILEINY 03 Dec 21:40:54 21:48:47 36° 298° (WNW) 21:56:46 435.215
ZACube-1 03 Dec 21:47:18 21:50:45 21° 269° (W) 21:54:11 437.345
CUBEBUG 1 03 Dec 21:48:53 21:51:32 16° 56° (NE) 21:54:12 437.445
CUBEBUG 2 03 Dec 21:51:39 21:52:27 10° 277° (W) 21:53:16 437.445
VELOX 1 03 Dec 21:53:31 21:55:40 14° 53° (NE) 21:57:50 145.980
UNISAT 6 03 Dec 21:54:11 21:57:36 21° 91° (E) 22:00:55 437.425
FUNcube-1 03 Dec 21:56:54 22:00:04 18° 270° (W) 22:03:14 145.935
HUMSAT D 03 Dec 22:01:11 22:05:21 59° 259° (W) 22:09:31 437.325/437.525
ISS 03 Dec 22:05:02 22:08:21 72° 194° (SSW) 22:11:39 145.825
PRISM 03 Dec 22:08:44 22:12:55 81° 285° (WNW) 22:17:05 437.425
DX 1 03 Dec 22:15:45 22:17:42 13° 53° (NE) 22:19:38 434.975-435.025
STRAND 1 03 Dec 22:18:48 22:21:14 13° 311° (NW) 22:23:38 437.568
TIGRISAT 03 Dec 22:24:34 22:28:44 36° 96° (E) 22:32:46 435.000
ANTELSAT 03 Dec 22:25:18 22:29:31 39° 97° (E) 22:33:36 437.575/2403.000
DELFI C3 03 Dec 22:27:57 22:30:43 18° 269° (W) 22:33:30 145.870
UKube-1 03 Dec 22:28:03 22:29:57 13° 53° (NE) 22:31:51 .
Cosmos 2504 03 Dec 22:30:22 22:38:01 36° 299° (WNW) 22:46:01 435.465 / 435.565
ESTCUBE 1 03 Dec 22:32:35 22:36:56 53° 69° (ENE) 22:41:19 437.505/2401.250
SPROUT 03 Dec 22:44:17 22:47:42 23° 61° (ENE) 22:51:07 437.525
AISAT 03 Dec 22:50:16 22:54:22 39° 66° (ENE) 22:58:32 437.250
50 SAT 03 Dec 23:01:49 23:05:00 33° 68° (ENE) 23:08:13 437.505
NANOSAT C BR1 03 Dec 23:05:50 23:07:54 13° 87° (E) 23:09:57 145.865
QB50P2 03 Dec 23:08:40 23:11:21 16° 89° (E) 23:14:01 145.880/145.840
POLYITAN 1 03 Dec 23:09:23 23:11:57 15° 89° (E) 23:14:29 437.675
SO-50 03 Dec 23:17:10 23:21:32 35° 327° (NNW) 23:25:49 436.795
QB50P1 03 Dec 23:22:48 23:26:00 20° 91° (E) 23:29:11 145.935-145.965
CUBEBUG 1 03 Dec 23:22:52 23:27:14 83° 257° (WSW) 23:31:40 437.445
JAS-2 03 Dec 23:26:08 23:30:48 32° 95° (E) 23:35:30 435.910
VELOX 1 03 Dec 23:27:00 23:31:25 79° 74° (ENE) 23:35:53 145.980
DUCHIFAT 1 03 Dec 23:28:34 23:31:44 20° 91° (E) 23:34:52 145.980
UNISAT 6 03 Dec 23:30:16 23:34:39 53° 290° (WNW) 23:38:54 437.425
ISS 03 Dec 23:41:47 23:44:31 24° 213° (SSW) 23:47:14 145.825
POPSAT HIP 1 03 Dec 23:43:40 23:47:30 31° 95° (E) 23:51:15 437.405
Cosmos 2499 03 Dec 23:45:32 23:51:54 24° 75° (ENE) 23:58:24 435.465 / 435.565
PRISM 03 Dec 23:45:43 23:47:33 13° 306° (NW) 23:49:23 437.425
YUBILEINY 03 Dec 23:46:38 23:49:05 11° 327° (NNW) 23:51:34 435.215
DX 1 03 Dec 23:48:48 23:53:09 75° 72° (ENE) 23:57:32 434.975-435.025
UKube-1 04 Dec 00:00:57 00:05:16 76° 72° (ENE) 00:09:36 .
TIGRISAT 04 Dec 00:01:24 00:05:22 31° 296° (WNW) 00:09:12 435.000
ANTELSAT 04 Dec 00:02:15 00:06:07 29° 297° (WNW) 00:09:55 437.575/2403.000
ESTCUBE 1 04 Dec 00:10:35 00:14:03 22° 269° (W) 00:17:33 437.505/2401.250
AUBIESAT-1 04 Dec 00:11:41 00:14:24 17° 48° (NE) 00:17:13 437.475
TISAT 1 04 Dec 00:14:36 00:18:25 33° 65° (ENE) 00:22:16 437.305
SPROUT 04 Dec 00:19:10 00:23:21 50° 260° (W) 00:27:35 437.525
M-CUBED/EXP-1 PRIME 04 Dec 00:21:01 00:24:18 22° 52° (NE) 00:27:44 437.505
GONETS M04 04 Dec 00:21:05 00:28:34 34° 82° (E) 00:36:01
AISAT 04 Dec 00:27:04 00:30:56 29° 265° (W) 00:34:51 437.250
Cosmos 2504 04 Dec 00:32:12 00:34:53 11° 327° (NNW) 00:37:35 435.465 / 435.565
SWISSCUBE 04 Dec 00:33:48 00:37:00 18° 56° (NE) 00:40:13 437.505
BUGSAT 1 04 Dec 00:35:18 00:39:15 37° 97° (E) 00:43:08 437.445
50 SAT 04 Dec 00:35:37 00:38:24 22° 266° (W) 00:41:12 437.505
BEESAT 04 Dec 00:38:08 00:41:20 18° 55° (NE) 00:44:32 436.000
NANOSAT C BR1 04 Dec 00:39:56 00:44:13 81° 287° (WNW) 00:48:26 145.865
QB50P2 04 Dec 00:43:22 00:47:37 67° 288° (WNW) 00:51:49 145.880/145.840
POLYITAN 1 04 Dec 00:43:58 00:48:14 70° 287° (WNW) 00:52:26 437.675
O/OREOS (USA 219) 04 Dec 00:53:30 00:57:08 23° 44° (NE) 01:00:43 437.305
QB50P1 04 Dec 00:57:56 01:02:05 52° 290° (WNW) 01:06:12 145.935-145.965
SO-50 04 Dec 01:00:05 01:03:14 18° 350° (N) 01:06:24 436.795
CUBEBUG 1 04 Dec 01:02:49 01:04:15 11° 275° (W) 01:05:42 437.445
ITUPSAT 1 04 Dec 01:03:07 01:07:06 27° 60° (ENE) 01:11:06 437.325
DUCHIFAT 1 04 Dec 01:03:35 01:07:43 52° 290° (WNW) 01:11:49 145.980
VELOX 1 04 Dec 01:05:59 01:08:28 15° 272° (W) 01:10:57 145.980
Oscar 19 04 Dec 01:06:55 01:11:02 23° 91° (E) 01:15:07 437.125/150
JAS-2 04 Dec 01:11:13 01:16:07 42° 295° (WNW) 01:21:01 435.910
POPSAT HIP 1 04 Dec 01:19:25 01:23:18 34° 294° (WNW) 01:27:08 437.405
DX 1 04 Dec 01:27:21 01:29:53 15° 271° (W) 01:32:25 434.975-435.025
Cosmos 2499 04 Dec 01:35:08 01:43:46 84° 98° (E) 01:52:44 435.465 / 435.565
UKube-1 04 Dec 01:39:25 01:41:50 15° 271° (W) 01:44:17 .
AUBIESAT-1 04 Dec 01:43:58 01:48:09 89° 62° (ENE) 01:52:39 437.475
TISAT 1 04 Dec 01:50:14 01:54:03 32° 264° (W) 01:57:54 437.305
M-CUBED/EXP-1 PRIME 04 Dec 01:54:15 01:58:21 62° 253° (WSW) 02:02:48 437.505
MOZHAYETS 4 04 Dec 02:04:50 02:08:35 25° 62° (ENE) 02:12:20
SWISSCUBE 04 Dec 02:09:27 02:14:15 82° 256° (WSW) 02:19:03 437.505
BUGSAT 1 04 Dec 02:10:52 02:14:32 29° 296° (WNW) 02:18:08 437.445
BEESAT 04 Dec 02:13:46 02:18:33 83° 254° (WSW) 02:23:22 436.000
GONETS M04 04 Dec 02:16:06 02:24:47 69° 285° (WNW) 02:33:31
NANOSAT C BR1 04 Dec 02:17:19 02:19:15 13° 306° (NW) 02:21:11 145.865
QB50P2 04 Dec 02:21:23 02:22:37 11° 308° (NW) 02:23:50 145.880/145.840
POLYITAN 1 04 Dec 02:21:50 02:23:15 11° 307° (NW) 02:24:39 437.675
Gurwin Techsat 1B 04 Dec 02:22:25 02:27:38 51° 100° (E) 02:32:48 435.225
O/OREOS (USA 219) 04 Dec 02:32:30 02:36:59 66° 245° (WSW) 02:41:24 437.305
ITUPSAT 1 04 Dec 02:40:03 02:44:42 51° 260° (W) 02:49:24 437.325
SO-50 04 Dec 02:41:58 02:45:20 19° 15° (NNE) 02:48:40 436.795
Oscar 19 04 Dec 02:45:38 02:50:47 63° 290° (WNW) 02:55:54 437.125/150
KKS-1 04 Dec 02:51:58 02:55:56 32° 64° (ENE) 02:59:57 437.445
STARS 04 Dec 03:05:05 03:08:36 23° 60° (ENE) 03:12:07 437.465
ITAMSAT 1 04 Dec 03:08:53 03:13:36 33° 96° (E) 03:18:16 435.822/435.867
AO-85 04 Dec 03:19:28 03:24:08 50° 125° (SE) 03:28:28 145.980
AUBIESAT-1 04 Dec 03:21:18 03:23:17 13° 269° (W) 03:25:18 437.475
Cosmos 2499 04 Dec 03:30:36 03:38:02 30° 302° (WNW) 03:45:42 435.465 / 435.565
CUBESAT XI-V 04 Dec 03:37:46 03:41:48 31° 64° (ENE) 03:45:52 437.345
MOZHAYETS 4 04 Dec 03:41:03 03:45:31 50° 261° (W) 03:49:59
AO-7 04 Dec 03:44:48 03:52:43 43° 98° (E) 04:00:35 29.400- 29.500
YUBILEINY 04 Dec 03:50:18 03:54:38 14° 39° (NE) 03:58:57 435.215
SWISSCUBE 04 Dec 03:50:45 03:52:49 13° 274° (W) 03:54:53 437.505
BEESAT 04 Dec 03:55:00 03:57:06 13° 274° (W) 03:59:14 436.000
Gurwin Techsat 1B 04 Dec 04:02:46 04:07:23 31° 300° (WNW) 04:11:59 435.225
BRITE-PL 04 Dec 04:04:51 04:04:58 10° 82° (E) 04:05:05 437.365/2234.400
GONETS M04 04 Dec 04:17:23 04:23:33 21° 311° (NW) 04:29:45
SO-50 04 Dec 04:22:24 04:26:52 47° 39° (NE) 04:31:13 436.795
Oscar 19 04 Dec 04:26:42 04:29:09 14° 311° (NW) 04:31:37 437.125/150
KKS-1 04 Dec 04:28:20 04:32:27 36° 263° (W) 04:36:38 437.445
Cosmos 2504 04 Dec 04:29:35 04:33:19 13° 36° (NE) 04:37:02 435.465 / 435.565
STARS 04 Dec 04:40:20 04:44:40 53° 260° (W) 04:49:02 437.465
STRAND 1 04 Dec 04:45:17 04:47:03 12° 47° (NE) 04:48:48 437.568
ITAMSAT 1 04 Dec 04:48:17 04:53:11 43° 295° (WNW) 04:58:04 435.822/435.867
AO-85 04 Dec 05:00:22 05:04:43 36° 324° (NW) 05:08:47 145.980
CUBESAT XI-V 04 Dec 05:14:50 05:19:07 38° 264° (W) 05:23:26 437.345
GOMX 1 04 Dec 05:27:07 05:31:32 25° 90° (E) 05:35:59 467.674
HORYU 2 04 Dec 05:28:12 05:32:13 32° 96° (E) 05:36:12 437.375
AO-7 04 Dec 05:37:39 05:45:48 59° 300° (WNW) 05:53:56 29.400- 29.500
BRITE-PL 04 Dec 05:39:13 05:44:26 58° 100° (E) 05:49:55 437.365/2234.400
YUBILEINY 04 Dec 05:45:56 05:54:21 46° 67° (ENE) 06:02:45 435.215
DOVE 4 04 Dec 05:49:33 05:53:12 18° 86° (E) 05:56:48 437.250
BEESAT 3 04 Dec 05:50:03 05:53:17 25° 118° (ESE) 05:56:35 437.485
LilacSat-2 04 Dec 05:54:16 05:56:55 18° 91° (E) 05:59:33 437.200
NOAA 18 04 Dec 05:57:16 06:00:31 16° 86° (E) 06:03:44 137.9125
AIST 1 04 Dec 05:57:58 06:00:41 16° 61° (ENE) 06:03:21
SO-50 04 Dec 06:03:06 06:07:14 35° 240° (WSW) 06:11:18 436.795
CUTE-I 04 Dec 06:06:03 06:10:32 27° 92° (E) 06:14:58 437.470
BEESAT 2 04 Dec 06:14:35 06:17:41 22° 117° (ESE) 06:20:49 435.950
STRAND 1 04 Dec 06:20:11 06:25:10 54° 68° (ENE) 06:30:11 437.568
Cosmos 2491 04 Dec 06:21:14 06:28:23 29° 79° (E) 06:35:31 435.465 / 435.565
Cosmos 2504 04 Dec 06:21:36 06:29:54 40° 64° (ENE) 06:37:52 435.465 / 435.565
Cubesat XI-IV 04 Dec 06:30:59 06:36:02 40° 97° (E) 06:41:02 437.490
HO-68 04 Dec 06:32:00 06:34:41 12° 80° (E) 06:37:21 435.675
NOAA 15 04 Dec 06:35:48 06:40:55 48° 99° (E) 06:46:01 137.62
AO-85 04 Dec 06:43:30 06:46:16 16° 347° (NNW) 06:48:57 145.980
CANX-2 04 Dec 06:52:26 06:52:56 10° 84° (E) 06:53:26 2200.000
GOMX 1 04 Dec 07:04:38 07:09:59 64° 289° (WNW) 07:15:25 467.674
HORYU 2 04 Dec 07:04:44 07:08:48 35° 295° (WNW) 07:12:49 437.375
RS-15 04 Dec 07:12:35 07:22:29 33° 104° (ESE) 07:32:43 29.354- 29.394
BRITE-PL 04 Dec 07:18:14 07:22:39 28° 298° (WNW) 07:27:16 437.365/2234.400
SEEDS 04 Dec 07:21:17 07:23:04 12° 86° (E) 07:24:51 437.485
CINEMA 3 04 Dec 07:23:33 07:27:58 32° 93° (E) 07:32:11 145.822/145.860
DOVE 4 04 Dec 07:26:09 07:31:31 82° 285° (WNW) 07:36:47 437.250
BEESAT 3 04 Dec 07:26:53 07:30:43 50° 319° (NW) 07:34:36 437.485
LilacSat-2 04 Dec 07:27:49 07:31:30 47° 290° (WNW) 07:35:08 437.200
PRISM 04 Dec 07:29:08 07:32:08 20° 60° (ENE) 07:35:09 437.425
AO-7 04 Dec 07:31:15 07:37:00 21° 324° (NW) 07:42:46 29.400- 29.500
AIST 1 04 Dec 07:34:26 07:38:52 77° 261° (W) 07:43:16
COMPASS 1 04 Dec 07:35:59 07:37:37 12° 86° (E) 07:39:15 437.405
NOAA 18 04 Dec 07:36:26 07:42:02 84° 106° (ESE) 07:47:35 137.9125
YUBILEINY 04 Dec 07:42:55 07:51:23 53° 271° (W) 07:59:50 435.215
CUTE-I 04 Dec 07:45:42 07:50:56 56° 292° (WNW) 07:56:08 437.470
BEESAT 2 04 Dec 07:51:15 07:55:10 57° 316° (NW) 07:59:09 435.950
TIGRISAT 04 Dec 07:54:54 07:56:33 12° 52° (NE) 07:58:13 435.000
ANTELSAT 04 Dec 07:55:29 07:57:25 12° 52° (NE) 07:59:20 437.575/2403.000
CUBEBUG 2 04 Dec 07:56:41 07:59:48 18° 88° (E) 08:02:51 437.445
STRAND 1 04 Dec 08:00:21 08:04:40 26° 267° (W) 08:08:59 437.568
CUTE 1.7 + AOD 2 04 Dec 08:07:46 08:11:51 47° 99° (E) 08:15:56 437.475
Cubesat XI-IV 04 Dec 08:11:11 08:16:06 38° 297° (WNW) 08:20:59 437.490
Cosmos 2504 04 Dec 08:15:05 08:23:49 63° 268° (W) 08:32:10 435.465 / 435.565
Cosmos 2491 04 Dec 08:15:35 08:24:23 78° 282° (WNW) 08:33:12 435.465 / 435.565
NOAA 15 04 Dec 08:15:54 08:20:33 32° 299° (WNW) 08:25:11 137.62
HO-68 04 Dec 08:16:56 08:24:03 57° 102° (ESE) 08:31:07 435.675
AIST 2 04 Dec 08:23:55 08:26:20 15° 112° (ESE) 08:28:47 435.215
CANX-2 04 Dec 08:25:17 08:29:31 80° 105° (ESE) 08:33:44 2200.000
AO-85 04 Dec 08:25:41 08:28:19 16° 12° (NNE) 08:30:50 145.980
Oscar 11 04 Dec 08:35:59 08:38:46 17° 89° (E) 08:41:31 145.826/435.025
AAUSAT CUBESAT 2 04 Dec 08:41:38 08:45:33 40° 97° (E) 08:49:27 437.432
UWE-3 04 Dec 08:43:07 08:47:05 32° 95° (E) 08:50:54 435.000/436.395/437.385
GOMX 1 04 Dec 08:44:20 08:47:08 14° 308° (NW) 08:49:57 467.674
SEEDS 04 Dec 08:55:10 08:59:22 84° 285° (WNW) 09:03:33 437.485
UNISAT 6 04 Dec 08:57:30 09:01:47 37° 66° (ENE) 09:06:04 437.425
CINEMA 3 04 Dec 09:00:34 09:05:12 41° 293° (WNW) 09:09:38 145.822/145.860
PRISM 04 Dec 09:03:07 09:07:05 54° 259° (WSW) 09:11:08 437.425
DOVE 4 04 Dec 09:05:01 09:08:26 18° 306° (NW) 09:11:50 437.250
BEESAT 3 04 Dec 09:06:36 09:09:12 17° 340° (NNW) 09:11:50 437.485
COMPASS 1 04 Dec 09:09:37 09:13:47 86° 290° (WNW) 09:17:57 437.405
AIST 1 04 Dec 09:15:17 09:15:37 10° 281° (W) 09:15:58
NOAA 18 04 Dec 09:17:58 09:22:05 22° 307° (NW) 09:26:12 137.9125
RS-15 04 Dec 09:21:34 09:33:32 89° 131° (SE) 09:46:00 29.354- 29.394
AO-7 04 Dec 09:25:09 09:26:40 11° 351° (N) 09:28:11 29.400- 29.500
CUTE-I 04 Dec 09:27:39 09:29:55 13° 313° (NW) 09:32:12 437.470
TIGRISAT 04 Dec 09:27:45 09:32:23 62° 71° (ENE) 09:37:00 435.000
Cosmos 2499 04 Dec 09:28:10 09:32:47 15° 40° (NE) 09:37:18 435.465 / 435.565
ANTELSAT 04 Dec 09:28:38 09:33:18 67° 72° (ENE) 09:37:55 437.575/2403.000
ZACube-1 04 Dec 09:28:48 09:33:04 55° 100° (E) 09:37:11 437.345
BEESAT 2 04 Dec 09:30:59 09:33:46 18° 339° (NNW) 09:36:35 435.950
CUBEBUG 2 04 Dec 09:32:25 09:36:53 62° 289° (WNW) 09:41:10 437.445
FUNcube-1 04 Dec 09:37:43 09:42:00 63° 102° (ESE) 09:46:08 145.935
HUMSAT D 04 Dec 09:40:06 09:42:32 15° 89° (E) 09:44:57 437.325/437.525
YUBILEINY 04 Dec 09:42:44 09:46:01 13° 294° (WNW) 09:49:17 435.215
JAS-2 04 Dec 09:43:59 09:49:22 32° 61° (ENE) 09:54:17 435.910
CUTE 1.7 + AOD 2 04 Dec 09:44:07 09:47:28 23° 298° (WNW) 09:50:48 437.475
DELFI C3 04 Dec 09:58:17 10:02:01 38° 97° (E) 10:05:46 145.870
AIST 2 04 Dec 10:00:05 10:04:13 85° 309° (NW) 10:08:27 435.215
CANX-2 04 Dec 10:02:22 10:04:50 15° 303° (WNW) 10:07:18 2200.000
NANOSAT C BR1 04 Dec 10:02:30 10:05:44 21° 60° (ENE) 10:08:58 145.865
HO-68 04 Dec 10:05:00 10:11:35 40° 303° (WNW) 10:18:09 435.675
AO-85 04 Dec 10:06:00 10:09:52 37° 36° (NE) 10:13:33 145.980
QB50P2 04 Dec 10:06:00 10:09:30 25° 62° (ENE) 10:13:02 145.880/145.840
POLYITAN 1 04 Dec 10:06:38 10:10:07 24° 62° (ENE) 10:13:36 437.675
Cosmos 2504 04 Dec 10:10:30 10:15:20 16° 291° (WNW) 10:20:05 435.465 / 435.565
Oscar 11 04 Dec 10:11:04 10:15:21 66° 287° (WNW) 10:19:36 145.826/435.025
CUSAT 1 04 Dec 10:12:59 10:16:03 63° 102° (ESE) 10:18:43 437.405
Cosmos 2491 04 Dec 10:16:11 10:22:53 24° 308° (NW) 10:29:37 435.465 / 435.565
AAUSAT CUBESAT 2 04 Dec 10:17:26 10:20:52 26° 296° (WNW) 10:24:19 437.432
UWE-3 04 Dec 10:19:35 10:23:33 34° 295° (WNW) 10:27:25 435.000/436.395/437.385
QB50P1 04 Dec 10:19:59 10:23:45 31° 65° (ENE) 10:27:32 145.935-145.965
GONETS M04 04 Dec 10:23:03 10:29:52 24° 53° (NE) 10:36:39
DUCHIFAT 1 04 Dec 10:25:09 10:28:52 30° 65° (ENE) 10:32:37 145.980
SEEDS 04 Dec 10:32:30 10:34:25 13° 304° (NW) 10:36:19 437.485
UNISAT 6 04 Dec 10:34:15 10:38:31 34° 264° (W) 10:42:46 437.425
DANDE 04 Dec 10:38:05 10:42:12 36° 98° (E) 10:45:27 436.750
POPSAT HIP 1 04 Dec 10:40:53 10:44:59 46° 69° (ENE) 10:49:07 437.405
BEESAT 3 04 Dec 10:46:33 10:48:21 13° 5° (N) 10:50:09 437.485
COMPASS 1 04 Dec 10:46:46 10:48:42 13° 304° (NW) 10:50:38 437.405
Oscar 19 04 Dec 10:53:34 10:55:31 12° 48° (NE) 10:57:29 437.125/150
ZACube-1 04 Dec 11:05:48 11:09:00 21° 300° (WNW) 11:12:09 437.345
TIGRISAT 04 Dec 11:06:01 11:09:28 20° 270° (W) 11:12:54 435.000
ANTELSAT 04 Dec 11:07:08 11:10:27 19° 271° (W) 11:13:44 437.575/2403.000
CUBEBUG 1 04 Dec 11:07:27 11:09:36 13° 87° (E) 11:11:45 437.445
BEESAT 2 04 Dec 11:11:13 11:13:04 13° 3° (N) 11:14:55 435.950
CUBEBUG 2 04 Dec 11:11:24 11:12:34 11° 309° (NW) 11:13:44 437.445
AO-7 04 Dec 11:12:42 11:15:51 13° 19° (NNE) 11:19:00 29.400- 29.500
VELOX 1 04 Dec 11:14:18 11:15:05 10° 85° (E) 11:15:52 145.980
HUMSAT D 04 Dec 11:14:32 11:18:37 65° 287° (WNW) 11:22:39 437.325/437.525
FUNcube-1 04 Dec 11:14:50 11:17:49 19° 301° (WNW) 11:20:45 145.935
Cosmos 2499 04 Dec 11:20:16 11:28:44 47° 67° (ENE) 11:36:39 435.465 / 435.565
JAS-2 04 Dec 11:27:59 11:34:17 57° 259° (WSW) 11:39:56 435.910
BUGSAT 1 04 Dec 11:29:40 11:33:48 52° 70° (ENE) 11:37:57 437.445
DELFI C3 04 Dec 11:33:26 11:36:42 25° 296° (WNW) 11:39:57 145.870
RS-15 04 Dec 11:35:49 11:47:33 50° 340° (NNW) 11:59:34 29.354- 29.394
NANOSAT C BR1 04 Dec 11:36:56 11:41:08 55° 259° (W) 11:45:22 145.865
AIST 2 04 Dec 11:39:57 11:43:18 23° 334° (NNW) 11:46:40 435.215
QB50P2 04 Dec 11:40:59 11:45:06 45° 261° (W) 11:49:15 145.880/145.840
POLYITAN 1 04 Dec 11:41:32 11:45:41 47° 261° (W) 11:49:52 437.675
AO-85 04 Dec 11:46:33 11:50:17 37° 238° (WSW) 11:53:52 145.980
Oscar 11 04 Dec 11:49:30 11:50:40 11° 307° (NW) 11:51:50 145.826/435.025
HO-68 04 Dec 11:54:29 11:57:28 13° 326° (NNW) 12:00:28 435.675
QB50P1 04 Dec 11:55:33 11:59:29 35° 264° (W) 12:03:26 145.935-145.965
ESTCUBE 1 04 Dec 11:56:03 12:00:30 54° 100° (E) 12:04:56 437.505/2401.250
50 SAT 04 Dec 11:56:05 11:58:39 18° 92° (E) 12:01:12 437.505
SPROUT 04 Dec 12:00:02 12:03:11 20° 91° (E) 12:06:19 437.525
DUCHIFAT 1 04 Dec 12:00:33 12:04:30 35° 263° (W) 12:08:27 145.980
Gurwin Techsat 1B 04 Dec 12:10:30 12:14:49 26° 58° (ENE) 12:19:09 435.225
AISAT 04 Dec 12:10:57 12:15:07 36° 97° (E) 12:19:15 437.250
POPSAT HIP 1 04 Dec 12:17:33 12:20:59 23° 267° (W) 12:24:28 437.405
GONETS M04 04 Dec 12:19:28 12:28:14 82° 79° (ENE) 12:36:59
DANDE 04 Dec 12:21:45 12:24:54 20° 290° (WNW) 12:27:34 436.750
BEESAT 3 04 Dec 12:24:07 12:27:20 22° 28° (NNE) 12:30:33 437.485
PCSat 04 Dec 12:26:36 12:31:46 48° 118° (ESE) 12:37:00 145.827
Oscar 19 04 Dec 12:28:48 12:33:48 56° 68° (ENE) 12:38:51 437.125/150
CUBEBUG 1 04 Dec 12:42:03 12:46:31 87° 291° (WNW) 12:50:59 437.445
VELOX 1 04 Dec 12:47:51 12:52:21 75° 103° (ESE) 12:56:49 145.980
BEESAT 2 04 Dec 12:49:06 12:52:16 21° 26° (NNE) 12:55:25 435.950
HUMSAT D 04 Dec 12:53:03 12:53:26 10° 307° (NW) 12:53:49 437.325/437.525
ITAMSAT 1 04 Dec 12:55:05 12:58:31 18° 53° (NE) 13:01:57 435.822/435.867
AO-7 04 Dec 12:59:10 13:05:59 30° 45° (NE) 13:12:49 29.400- 29.500
BUGSAT 1 04 Dec 13:06:17 13:09:28 20° 269° (W) 13:12:40 437.445
DX 1 04 Dec 13:07:32 13:11:56 66° 103° (ESE) 13:16:17 434.975-435.025
Cosmos 2499 04 Dec 13:13:39 13:22:01 52° 271° (W) 13:29:53 435.465 / 435.565
UKube-1 04 Dec 13:18:25 13:22:46 64° 102° (ESE) 13:27:05 .
AIST 2 04 Dec 13:21:01 13:23:13 14° 358° (N) 13:25:24 435.215
TISAT 1 04 Dec 13:28:21 13:31:59 27° 94° (E) 13:35:35 437.305
50 SAT 04 Dec 13:28:46 13:32:08 40° 291° (WNW) 13:35:29 437.505
ESTCUBE 1 04 Dec 13:33:27 13:37:01 23° 300° (WNW) 13:40:33 437.505/2401.250
SPROUT 04 Dec 13:35:14 13:39:27 55° 290° (WNW) 13:43:39 437.525
AISAT 04 Dec 13:47:32 13:51:32 32° 296° (WNW) 13:55:31 437.250
Gurwin Techsat 1B 04 Dec 13:49:07 13:54:24 64° 258° (WSW) 13:59:43 435.225
RS-15 04 Dec 13:51:26 14:03:16 47° 13° (NNE) 14:15:03 29.354- 29.394
BEESAT 3 04 Dec 14:01:27 14:05:28 87° 235° (SW) 14:09:28 437.485
SWISSCUBE 04 Dec 14:05:03 14:08:12 17° 89° (E) 14:11:21 437.505
Oscar 19 04 Dec 14:09:15 14:13:28 25° 268° (W) 14:17:44 437.125/150
BEESAT 04 Dec 14:09:19 14:12:27 17° 89° (E) 14:15:34 436.000
PCSat 04 Dec 14:10:10 14:15:19 42° 320° (NW) 14:20:29 145.827
